sat.trackr.live / text

‹ back to catalog

STARLINK-34474

NORAD 64474 · 2025-133C

PAYLOAD ACTIVE UNKNOWN

§ Identity

Operator
Country
US
Launch date
2025-06-23
Launch site
AFETR
Launch vehicle
Mass (kg)
RCS (m²)

Purposes: comms

External: N2YO · Heavens-Above · Gunter

§ Orbital elements

Epoch: 2026-09-20T09:01:18.026976Z

Period
93.85 min
Inclination
53.1577°
Eccentricity
0.0001321
Mean motion
15.34402978 rev/d
Perigee alt
461.8 km
Apogee alt
463.6 km
Semi-major
6,840.8 km
B*
3.0494e-4
RAAN
290.5279°
Arg perigee
79.2544°
Mean anomaly
280.8607°
Rev number
7,100

§ Raw data

STARLINK-344741 64474U 25133C   26263.37590309  .00009941  00000+0  30494-3 0  99992 64474  53.1577 290.5279 0001321  79.2544 280.8607 15.34402978 71009

JSON: /api/v1/satellites/64474 · /tle

For live sub-satellite position, see the globe view (requires WebGL).

§ Visibility from observer

Set your observer location to see the next 7 days of passes ≥ 10°. The values pass through the URL so the page stays shareable.

No JS? Fill the form by hand. The geolocation button needs JavaScript.